Showing default

DMC 3-FM2, 40716

Orbit data source: Space-Track

DMC 3-FM2, 40716 is a payload satellite owned by DMCii (UK) in SSO that was launched on Fri, 10 Jul 2015 UTC via a PSLV-XL launch vehicle from the Sirharikota (SRI). Payload-class satellites include a variety of spacecraft equipped with specific instruments for various scientific and technological missions. These include communications satellites like Starlink; space stations such as the ISS; scientific satellites like the Hubble; Earth observation satellites from companies like Planet Labs, Umbra, and HawkEye 360; GPS; miniature CubeSats for education and research; and military/defense satellites.

Loading next visibility...
Identifier
40716, 2015-032B
Orbit
SSO
Country
Flag of UKUK
Related business
Manufacturer
SSTL (Astrium)
Mission
Operational Commercial Imaging
Bus & Motor
SSTL-300S1, Unknown motor
Mass
447 kg wet, 435 kg dry
Launch date (UTC)
2015-07-10 (11 years ago)
Launch vehicle
PSLV-XL
Launch site
Sirharikota (SRI)
Object type
Payload
Rocket body
Debris
Shape & HBR
Hept Cyl + Cyl, 1.3 m
Radar Cross Section
2.356 m², Large (>1 m²)

Expand to show TLE details & history
Last TLE update: 6 hours ago

TLE from 6 hours ago
0 DMC 3-FM2
1 40716U 15032B   26208.29877413  .00000197  00000-0  28608-4 0  9993
2 40716  97.6470  73.4924 0004666 295.0193  65.0538 14.85783042595865
Epoch: 2026-07-27T07:10Z
TLE epoch observation values (Epoch: 2026-07-27T07:10:14.084Z)
Latitude
-0.00005°
Longitude
20.94937°
Altitude
612.791 km
Speed
7.553 km/s
True Right ascension
04h 53m 58s
True Declination
0° 00' 00"
Sunlit
Object was in daylight at epoch
Visualization orbit readout
Latitude
Unknown
Longitude
Unknown
Altitude
Unknown
Speed
Unknown
Apparent Right ascension
Unknown
Apparent Declination
Unknown
Sunlit
N/A
Visualization observer readout
Local Sidereal Time
02:22:05
Azimuth
Unknown
Elevation
Unknown
Doppler factor
Unknown
Orbital elements
Apogee altitude
611.411 km
Perigee altitude
604.891 km
Semi-major axis
6,986.288 km
Eccentricity
0.00047
Inclination
97.647°
RAAN
73.4924°
Arg. of periapsis
295.0193°
True anomaly
65.10229°
Mean anomaly
65.0538°
Eccentric anomaly
65.07804°
Mean motion
3.71684 °/min
Orbital period
96.86 mins
BSTAR
0.000028608
Loading maneuver chart data...
Computing Atmospheric mass density...
Loading historical data...
Loading historical data...
Loading historical data...
Loading historical data...
Loading historical data...
Loading historical data...
Loading historical data...
Other satellites on launch #32 in the year 2015 (2015-07-10 UTC)

Documentation

Showing up to 5 results
|